• In Uzbekistan
  • List of Countries
  • For 7 days
  • Water Temperature
  • Satellite Maps
  • Weather Map
  • Weather Widgets
  • user-avatar
    Login

    Hourly Weather Yulara

    Today, 3 December, Saturday

    Time Temperature Precipitation Wind Pressure Humidity
    00:00 +32°C° 1.6 mm 5 mps 715 mmHg 43%
    01:00 +32°C° 0.2 mm 5 mps 715 mmHg 44%
    02:00 +30°C° 0.2 mm 5 mps 714 mmHg 45%
    03:00 +30°C° 0 mm 5 mps 714 mmHg 46%
    04:00 +30°C° 0.2 mm 4 mps 714 mmHg 47%
    05:00 +29°C° 0.2 mm 4 mps 715 mmHg 48%
    06:00 +29°C° 0.2 mm 4 mps 715 mmHg 49%
    07:00 +30°C° 0 mm 4 mps 715 mmHg 44%
    08:00 +33°C° 0 mm 3 mps 716 mmHg 39%
    09:00 +34°C° 0 mm 3 mps 717 mmHg 34%
    10:00 +35°C° 0 mm 4 mps 717 mmHg 31%
    11:00 +36°C° 0 mm 5 mps 716 mmHg 29%
    12:00 +38°C° 0 mm 6 mps 716 mmHg 26%
    13:00 +38°C° 0 mm 6 mps 716 mmHg 25%
    14:00 +39°C° 0 mm 6 mps 715 mmHg 24%
    15:00 +37°C° 0 mm 4 mps 715 mmHg 28%
    16:00 +37°C° 0 mm 4 mps 715 mmHg 27%
    17:00 +37°C° 0 mm 4 mps 715 mmHg 26%
    18:00 +37°C° 0 mm 4 mps 715 mmHg 25%
    19:00 +36°C° 0 mm 4 mps 715 mmHg 26%
    20:00 +35°C° 0 mm 3 mps 715 mmHg 28%
    21:00 +33°C° 0 mm 3 mps 715 mmHg 34%
    22:00 +33°C° 0.1 mm 3 mps 715 mmHg 35%
    23:00 +31°C° 0.1 mm 2 mps 715 mmHg 36%

    Tomorrow, 4 December, Sunday

    Time Temperature Precipitation Wind Pressure Humidity
    00:00 +31°C° 0.1 mm 2 mps 715 mmHg 38%
    01:00 +31°C° 0.1 mm 3 mps 715 mmHg 40%
    02:00 +30°C° 0.1 mm 3 mps 715 mmHg 42%
    03:00 +30°C° 0.1 mm 4 mps 715 mmHg 44%
    04:00 +29°C° 0 mm 4 mps 715 mmHg 45%
    05:00 +29°C° 0 mm 4 mps 715 mmHg 47%
    06:00 +29°C° 0 mm 4 mps 715 mmHg 48%
    07:00 +30°C° 0 mm 5 mps 715 mmHg 44%
    08:00 +33°C° 0 mm 6 mps 715 mmHg 40%
    09:00 +35°C° 0 mm 7 mps 716 mmHg 36%
    10:00 +37°C° 0 mm 8 mps 715 mmHg 32%
    11:00 +39°C° 0 mm 8 mps 715 mmHg 28%
    12:00 +40°C° 0 mm 8 mps 715 mmHg 24%
    13:00 +39°C° 0 mm 9 mps 715 mmHg 26%
    14:00 +38°C° 0 mm 9 mps 714 mmHg 29%
    15:00 +37°C° 0 mm 10 mps 714 mmHg 31%
    16:00 +35°C° 0.2 mm 8 mps 714 mmHg 33%
    17:00 +35°C° 0.2 mm 6 mps 714 mmHg 35%
    18:00 +34°C° 0.2 mm 5 mps 714 mmHg 37%
    19:00 +33°C° 0.2 mm 4 mps 714 mmHg 40%
    20:00 +33°C° 0.2 mm 4 mps 714 mmHg 42%
    21:00 +32°C° 0.2 mm 4 mps 714 mmHg 45%
    22:00 +30°C° 0.4 mm 4 mps 714 mmHg 48%
    23:00 +30°C° 0.4 mm 5 mps 714 mmHg 51%

    Day after tomorrow, 5 December, Monday

    Time Temperature Precipitation Wind Pressure Humidity
    00:00 +29°C° 0.4 mm 5 mps 714 mmHg 54%
    01:00 +29°C° 0.1 mm 5 mps 714 mmHg 55%
    02:00 +28°C° 0.1 mm 5 mps 714 mmHg 57%
    03:00 +28°C° 0.1 mm 5 mps 714 mmHg 59%
    04:00 +28°C° 0.5 mm 4 mps 714 mmHg 60%
    05:00 +28°C° 0.5 mm 4 mps 715 mmHg 62%
    06:00 +28°C° 0.5 mm 4 mps 715 mmHg 63%
    07:00 +29°C° 0.1 mm 5 mps 715 mmHg 56%
    08:00 +32°C° 0.1 mm 5 mps 716 mmHg 49%
    09:00 +34°C° 0.1 mm 6 mps 716 mmHg 42%
    10:00 +36°C° 0 mm 7 mps 716 mmHg 37%
    11:00 +38°C° 0 mm 8 mps 715 mmHg 33%
    12:00 +39°C° 0 mm 8 mps 715 mmHg 29%
    13:00 +38°C° 0.3 mm 8 mps 715 mmHg 31%
    14:00 +38°C° 0.3 mm 7 mps 714 mmHg 32%
    15:00 +36°C° 0.3 mm 7 mps 714 mmHg 34%
    16:00 +35°C° 0.7 mm 8 mps 714 mmHg 39%
    17:00 +34°C° 0.7 mm 9 mps 714 mmHg 43%
    18:00 +32°C° 0.7 mm 11 mps 714 mmHg 48%
    19:00 +31°C° 0.4 mm 9 mps 715 mmHg 54%
    20:00 +29°C° 0.4 mm 7 mps 715 mmHg 59%
    21:00 +28°C° 0.4 mm 5 mps 716 mmHg 65%
    22:00 +27°C° 0.5 mm 5 mps 716 mmHg 67%
    23:00 +27°C° 0.5 mm 5 mps 716 mmHg 69%

    6 December, Tuesday

    Time Temperature Precipitation Wind Pressure Humidity
    00:00 +26°C° 0.5 mm 5 mps 716 mmHg 71%
    01:00 +26°C° 0.1 mm 4 mps 716 mmHg 71%
    02:00 +26°C° 0.1 mm 4 mps 716 mmHg 72%
    03:00 +26°C° 0.1 mm 3 mps 715 mmHg 72%
    04:00 +26°C° 0.3 mm 3 mps 716 mmHg 74%
    05:00 +26°C° 0.3 mm 2 mps 717 mmHg 75%
    06:00 +25°C° 0.3 mm 2 mps 717 mmHg 76%
    07:00 +26°C° 0.4 mm 2 mps 718 mmHg 74%
    08:00 +26°C° 0.4 mm 2 mps 718 mmHg 72%
    09:00 +26°C° 0.4 mm 2 mps 719 mmHg 71%
    10:00 +26°C° 0.7 mm 2 mps 719 mmHg 67%
    11:00 +26°C° 0.7 mm 2 mps 719 mmHg 64%
    12:00 +26°C° 0.7 mm 2 mps 719 mmHg 61%
    13:00 +25°C° 0.7 mm 2 mps 718 mmHg 62%
    14:00 +25°C° 0.7 mm 2 mps 718 mmHg 63%
    15:00 +25°C° 0.7 mm 2 mps 717 mmHg 65%
    16:00 +25°C° 0.3 mm 2 mps 717 mmHg 65%
    17:00 +25°C° 0.3 mm 2 mps 717 mmHg 66%
    18:00 +25°C° 0.3 mm 1 mps 717 mmHg 67%
    19:00 +25°C° 0 mm 2 mps 717 mmHg 68%
    20:00 +24°C° 0 mm 2 mps 717 mmHg 69%
    21:00 +24°C° 0 mm 3 mps 718 mmHg 70%
    22:00 +24°C° 0 mm 2 mps 717 mmHg 70%
    23:00 +24°C° 0 mm 2 mps 717 mmHg 71%

    7 December, Wednesday

    Time Temperature Precipitation Wind Pressure Humidity
    00:00 +24°C° 0 mm 1 mps 717 mmHg 71%
    01:00 +24°C° 0 mm 1 mps 717 mmHg 71%
    02:00 +24°C° 0 mm 1 mps 716 mmHg 72%
    03:00 +24°C° 0 mm 1 mps 716 mmHg 72%
    04:00 +24°C° 0 mm 1 mps 716 mmHg 71%
    05:00 +24°C° 0 mm 1 mps 717 mmHg 70%
    06:00 +25°C° 0 mm 1 mps 717 mmHg 70%
    07:00 +26°C° 0 mm 2 mps 717 mmHg 63%
    08:00 +28°C° 0 mm 3 mps 718 mmHg 57%
    09:00 +29°C° 0 mm 4 mps 718 mmHg 51%
    10:00 +32°C° 0 mm 4 mps 718 mmHg 45%
    11:00 +33°C° 0 mm 4 mps 718 mmHg 39%
    12:00 +35°C° 0 mm 4 mps 718 mmHg 33%
    13:00 +36°C° 0 mm 5 mps 717 mmHg 31%
    14:00 +36°C° 0 mm 6 mps 716 mmHg 30%
    15:00 +36°C° 0 mm 7 mps 716 mmHg 28%
    16:00 +36°C° 0 mm 7 mps 716 mmHg 29%
    17:00 +35°C° 0 mm 7 mps 716 mmHg 29%
    18:00 +35°C° 0 mm 6 mps 716 mmHg 30%
    19:00 +34°C° 0 mm 5 mps 716 mmHg 32%
    20:00 +33°C° 0 mm 4 mps 717 mmHg 33%
    21:00 +33°C° 0 mm 3 mps 717 mmHg 35%
    22:00 +31°C° 0 mm 3 mps 717 mmHg 37%
    23:00 +30°C° 0 mm 3 mps 717 mmHg 39%

    8 December, Thursday

    Time Temperature Precipitation Wind Pressure Humidity
    00:00 +30°C° 0 mm 3 mps 716 mmHg 40%
    01:00 +29°C° 0 mm 3 mps 716 mmHg 42%
    02:00 +29°C° 0 mm 3 mps 715 mmHg 43%
    03:00 +28°C° 0 mm 3 mps 715 mmHg 45%
    04:00 +28°C° 0 mm 3 mps 715 mmHg 46%
    05:00 +28°C° 0 mm 3 mps 716 mmHg 48%
    06:00 +28°C° 0 mm 3 mps 716 mmHg 49%
    07:00 +29°C° 0 mm 3 mps 716 mmHg 45%
    08:00 +31°C° 0 mm 3 mps 717 mmHg 41%
    09:00 +34°C° 0 mm 3 mps 717 mmHg 37%
    10:00 +35°C° 0 mm 3 mps 717 mmHg 34%
    11:00 +36°C° 0 mm 3 mps 717 mmHg 31%
    12:00 +37°C° 0 mm 3 mps 717 mmHg 27%
    13:00 +37°C° 0 mm 3 mps 717 mmHg 26%
    14:00 +38°C° 0 mm 3 mps 716 mmHg 24%
    15:00 +40°C° 0 mm 4 mps 716 mmHg 22%
    16:00 +39°C° 0.1 mm 5 mps 716 mmHg 24%
    17:00 +38°C° 0.1 mm 6 mps 716 mmHg 27%
    18:00 +36°C° 0.1 mm 7 mps 717 mmHg 29%
    19:00 +35°C° 0.2 mm 7 mps 717 mmHg 33%
    20:00 +34°C° 0.2 mm 8 mps 717 mmHg 36%
    21:00 +32°C° 0.2 mm 8 mps 717 mmHg 40%
    22:00 +30°C° 0.4 mm 7 mps 718 mmHg 42%
    23:00 +30°C° 0.4 mm 6 mps 718 mmHg 44%
    Show more